[[{"header":{"parameterUnit":"m.s-1","parameterCategory":1,"la1":30.2991,"la2":30.254,"lo1":-89.0895,"lo2":-89.0444,"dy":0.0017,"dx":0.0017,"nx":28,"ny":28,"refTime":"2025-08-18T21:00:00:Z","depth":0,"parameterNumber":2,"parameterNumberName":"U-component_of_WINDS"},"data":[0,0,0,0,0,0,0,0,0,0,0,0,0,0,0,0,0,0,0,0,0,0,0,0,0,0,0,0,0,0,0,0,0,0,0,0,0,0,0,0,0,0,0,0,0,0,0,0,0,0,0,0,0,0,0,0,0,0,1.8445,1.8445,0,1.8442,1.8442,1.8442,1.8402,1.8401,1.84,1.8399,1.8395,1.8396,1.8397,0,0,0,0,0,0,0,0,0,0,0,0,0,1.8417,1.8418,1.8445,1.8445,1.8445,1.8442,1.8442,1.8442,1.8402,1.8401,1.84,1.8398,1.8395,1.8396,1.8397,0,0,0,0,0,0,0,0,0,0,0,0,0,1.8423,1.8418,1.8445,1.8425,1.8423,1.8442,1.8442,1.8442,1.8402,1.8401,1.8399,1.8398,1.8395,1.8396,1.8397,1.8435,0,0,1.8401,1.8402,0,0,0,0,0,0,0,0,1.8423,1.8424,1.8428,1.8426,1.8424,1.8421,1.843,1.8439,1.8403,1.841,1.8399,1.8397,1.8405,1.8405,1.8408,1.8435,1.8435,1.8401,1.8402,1.8402,1.8403,0,0,0,0,0,0,0,1.8423,1.8424,1.8444,1.8428,1.8426,1.8416,1.8415,1.8432,1.8416,1.8409,1.8407,1.8407,1.8404,1.8407,1.8408,1.8435,1.8401,1.8402,1.8403,1.8404,1.8491,1.8492,0,0,0,0,0,0,1.8425,1.8424,1.8444,1.8444,1.842,1.8418,1.8417,1.8423,1.8416,1.8413,1.8408,1.8405,1.8405,1.8406,1.8407,1.8449,1.8402,1.8404,1.8404,1.8489,1.8491,1.8493,0,0,0,0,0,0,1.8425,1.8427,1.8444,1.8433,1.8434,1.842,1.8428,1.8424,1.8427,1.8415,1.8412,1.8414,1.8404,1.8406,1.8428,1.8449,1.8404,1.8405,1.8487,1.849,1.8492,1.8535,0,0,0,0,0,0,1.8424,1.8427,1.8441,1.8434,1.8435,1.8465,1.8429,1.8425,1.8429,1.8425,1.842,1.8417,1.8403,1.8426,1.8429,1.845,1.8406,1.8485,1.8488,1.8491,1.8531,1.8538,1.8544,0,0,0,0,0,1.8423,1.8454,1.8442,1.8445,1.8453,1.8466,1.8467,1.845,1.8431,1.8445,1.8437,1.8417,1.8447,1.8429,1.8432,1.8453,1.8484,1.8487,1.8491,1.8529,1.8537,1.8544,0,0,0,0,0,0,1.8465,1.8453,1.844,1.8469,1.8469,1.846,1.8477,1.846,1.8465,1.8461,1.8441,1.844,1.8465,1.8462,1.8442,1.8488,1.8462,1.8466,1.8489,1.8497,1.8504,1.8503,1.8407,0,0,0,0,0,1.8478,1.849,1.8479,1.8506,1.8506,1.8492,1.8497,1.8484,1.8483,1.8483,1.8476,1.8476,1.8485,1.8491,1.8499,1.8531,1.8529,1.8547,1.8554,1.8559,1.8562,1.8578,1.8585,1.8504,1.8504,1.8504,0,0,1.8504,1.8499,1.8508,1.8514,1.8512,1.8525,1.8492,1.8507,1.8516,1.8485,1.8505,1.8501,1.8499,1.8526,1.8538,1.8524,1.8585,1.8564,1.8568,1.8568,1.8582,1.859,1.8597,1.8506,1.8506,1.8506,0,0,1.8558,1.8556,1.8577,1.8576,1.8574,1.8564,1.8569,1.8562,1.8558,1.8578,1.8555,1.8565,1.8582,1.8581,1.8583,1.8636,1.8617,1.8639,1.8672,1.8687,1.8693,1.8699,1.8716,1.8723,1.8643,1.8643,1.8643,0,1.8591,1.8608,1.8591,1.8607,1.8609,1.8583,1.8604,1.8604,1.8604,1.8607,1.8591,1.861,1.8607,1.8633,1.8646,1.8649,1.8654,1.8639,1.8694,1.8699,1.8704,1.872,1.8727,1.8645,1.8645,1.8645,1.8645,0,1.8648,1.8661,1.8679,1.8679,1.8684,1.8703,1.8687,1.8695,1.8682,1.8673,1.8693,1.8689,1.8695,1.87,1.8688,1.8724,1.8715,1.8698,1.867,1.8715,1.8729,1.8736,1.8649,1.8648,1.8647,1.8647,0,0,1.8728,1.8718,1.8724,1.8723,1.8719,1.8728,1.8746,1.8751,1.8757,1.8758,1.8771,1.8786,1.8768,1.8771,1.8758,1.8772,1.8812,1.8752,1.8751,1.8761,1.8849,1.8861,1.8869,1.88,1.8801,1.8802,1.8849,0,1.8778,1.8806,1.879,1.8821,1.8831,1.8806,1.8821,1.8819,1.8812,1.882,1.8812,1.8821,1.8799,1.88,1.8813,1.8804,1.8829,1.8801,1.8811,1.8812,1.881,1.8877,1.889,1.8934,1.8855,1.8856,1.8856,0,1.884,1.8843,1.8875,1.8867,1.8871,1.8884,1.8887,1.8895,1.8893,1.8887,1.8889,1.8873,1.8888,1.8862,1.8883,1.8865,1.8868,1.8865,1.8866,1.8865,1.8835,1.8876,1.8948,1.8954,1.8866,1.8865,1.8864,0,1.8893,1.8905,1.8925,1.8925,1.8917,1.8927,1.8924,1.892,1.8924,1.8927,1.8929,1.8934,1.8936,1.894,1.8925,1.8908,1.8948,1.8921,1.8942,1.8942,1.8949,1.8949,1.9021,1.8955,1.8955,1.8955,1.8955,0,1.8949,1.8969,1.8948,1.896,1.8981,1.8963,1.8984,1.8978,1.8975,1.8985,1.8965,1.8974,1.8955,1.8963,1.8952,1.897,1.8972,1.8966,1.8963,1.8967,1.8967,1.8968,1.8963,1.8957,1.8956,1.8956,1.8956,0,1.9011,1.8998,1.9017,1.9008,1.9006,1.9022,1.9013,1.9024,1.9015,1.9028,1.903,1.9016,1.9024,1.9011,1.9017,1.901,1.9034,1.9027,1.9035,1.9032,1.9053,1.905,1.9126,1.9134,1.9065,1.9066,1.9066,0,1.9047,1.9061,1.9053,1.9058,1.9056,1.9065,1.9068,1.9051,1.9055,1.9053,1.9064,1.907,1.9074,1.9088,1.9079,1.9084,1.9075,1.9101,1.9076,1.9079,1.9073,1.9072,1.9072,1.9106,1.9107,1.9108,1.9108,0,1.9112,1.9104,1.911,1.9113,1.9118,1.912,1.912,1.9125,1.9107,1.9113,1.9121,1.9124,1.913,1.9136,1.9139,1.9135,1.9118,1.9117,1.9121,1.9125,1.9128,1.9125,1.9047,1.9115,1.9114,1.9113,1.9113,1.9113,1.916,1.9171,1.9167,1.9173,1.9172,1.9172,1.9181,1.9173,1.9179,1.9183,1.9172,1.9182,1.9179,1.918,1.9179,1.9186,1.9174,1.9181,1.9183,1.9184,1.9187,1.9128,1.9186,1.9186,1.9186,1.9186,1.9186,0,1.9223,1.9218,1.9225,1.9225,1.923,1.9214,1.9213,1.9219,1.9227,1.9226,1.923,1.9238,1.9244,1.9234,1.9238,1.9246,1.9238,1.9247,1.9246,1.9245,1.9198,1.9193,1.9253,1.9253,1.9253,1.9253,1.9253,1.9253,1.9255,1.9272,1.9264,1.928,1.9275,1.9284,1.9285,1.9285,1.9283,1.9293,1.9298,1.9292,1.9287,1.929,1.9294,1.9291,1.9293,1.9304,1.9299,1.9255,1.9248,1.9242,1.9236,1.9306,1.9306,1.9345,1.9345,1.9345]},{"header":{"parameterUnit":"m.s-1","parameterCategory":1,"la1":30.2991,"la2":30.254,"lo1":-89.0895,"lo2":-89.0444,"dy":0.0017,"dx":0.0017,"nx":28,"ny":28,"refTime":"2025-08-18T21:00:00:Z","depth":0,"parameterNumber":3,"parameterNumberName":"V-component_of_WINDS"},"data":[0,0,0,0,0,0,0,0,0,0,0,0,0,0,0,0,0,0,0,0,0,0,0,0,0,0,0,0,0,0,0,0,0,0,0,0,0,0,0,0,0,0,0,0,0,0,0,0,0,0,0,0,0,0,0,0,0,0,0.408,0.4081,0,0.4189,0.419,0.4191,0.4222,0.4222,0.4221,0.422,0.4329,0.4333,0.4336,0,0,0,0,0,0,0,0,0,0,0,0,0,0.3893,0.3896,0.4079,0.4081,0.4082,0.4188,0.419,0.4191,0.4222,0.4222,0.4221,0.422,0.4328,0.4332,0.4336,0,0,0,0,0,0,0,0,0,0,0,0,0,0.3985,0.3897,0.4079,0.4111,0.4114,0.4188,0.419,0.4192,0.4222,0.4222,0.4221,0.422,0.4327,0.4332,0.4337,0.4386,0,0,0.4353,0.4355,0,0,0,0,0,0,0,0,0.398,0.3992,0.4105,0.4109,0.4113,0.4191,0.4164,0.4257,0.4223,0.4181,0.422,0.4219,0.4284,0.4292,0.4315,0.4391,0.4396,0.4353,0.4356,0.4358,0.436,0,0,0,0,0,0,0,0.3974,0.3987,0.4123,0.4106,0.4111,0.4117,0.413,0.4182,0.4236,0.4185,0.4187,0.42,0.4286,0.431,0.4317,0.4398,0.4353,0.4358,0.4361,0.4363,0.4517,0.4518,0,0,0,0,0,0,0.3962,0.3982,0.4119,0.4126,0.4043,0.4122,0.4135,0.4167,0.4236,0.4245,0.4201,0.4201,0.4301,0.4311,0.4321,0.4383,0.4358,0.4363,0.4366,0.4516,0.4518,0.4519,0,0,0,0,0,0,0.3958,0.3974,0.4115,0.4055,0.4073,0.4126,0.4161,0.4169,0.4193,0.4248,0.4257,0.4215,0.4301,0.4314,0.437,0.4387,0.4366,0.437,0.4515,0.4517,0.4518,0.4506,0,0,0,0,0,0,0.3953,0.3973,0.3994,0.4055,0.4076,0.4163,0.4162,0.4172,0.4202,0.4204,0.4264,0.4273,0.4301,0.4362,0.4375,0.4394,0.4374,0.4514,0.4516,0.4518,0.4505,0.4507,0.4509,0,0,0,0,0,0.3946,0.3986,0.3994,0.4011,0.4103,0.4164,0.4176,0.4208,0.4204,0.4224,0.4258,0.4271,0.4382,0.4367,0.4382,0.4403,0.4513,0.4515,0.4517,0.4505,0.4507,0.4509,0,0,0,0,0,0,0.3925,0.3995,0.4005,0.4066,0.4109,0.4169,0.4196,0.421,0.4254,0.4254,0.4291,0.4304,0.4357,0.4385,0.4367,0.4453,0.4448,0.4453,0.4433,0.4435,0.4437,0.4429,0.4379,0,0,0,0,0,0.3927,0.3972,0.403,0.4078,0.4099,0.4143,0.4171,0.4192,0.4237,0.4255,0.4294,0.4336,0.4381,0.4409,0.4453,0.4509,0.4521,0.453,0.4531,0.4533,0.4537,0.4566,0.457,0.4526,0.4526,0.4526,0,0,0.3933,0.3976,0.4002,0.4074,0.411,0.4154,0.4158,0.4205,0.4237,0.4262,0.4317,0.4346,0.4396,0.4451,0.4477,0.4476,0.4552,0.4536,0.4536,0.454,0.4569,0.4573,0.4577,0.4528,0.4527,0.4527,0,0,0.3966,0.4003,0.4047,0.4082,0.4136,0.4165,0.4175,0.4232,0.4253,0.4308,0.4327,0.4365,0.4441,0.4475,0.4502,0.4544,0.4556,0.4557,0.4566,0.4594,0.4597,0.4601,0.4615,0.4619,0.4561,0.4561,0.4561,0,0.3966,0.4034,0.4067,0.4113,0.4143,0.4167,0.421,0.4242,0.4307,0.4326,0.4324,0.4419,0.4454,0.4516,0.4526,0.4547,0.4559,0.4551,0.4594,0.4598,0.4602,0.4615,0.462,0.456,0.456,0.456,0.456,0,0.403,0.4077,0.4105,0.4167,0.42,0.4244,0.4283,0.4312,0.4329,0.4357,0.4411,0.4454,0.4506,0.4522,0.454,0.4586,0.4584,0.4587,0.4583,0.4605,0.4618,0.4624,0.456,0.456,0.456,0.456,0,0,0.4056,0.4134,0.4144,0.4171,0.4231,0.4266,0.4309,0.4361,0.4384,0.4427,0.4463,0.4526,0.4529,0.4559,0.458,0.4604,0.4633,0.4605,0.4607,0.4608,0.4685,0.4682,0.4688,0.4641,0.4642,0.4643,0.468,0,0.4096,0.4176,0.4206,0.4271,0.4313,0.4335,0.4372,0.4411,0.4438,0.4476,0.4505,0.4548,0.4549,0.4568,0.4593,0.4624,0.4649,0.4622,0.4673,0.4675,0.4661,0.4695,0.4693,0.4727,0.4686,0.4687,0.4688,0,0.4155,0.4198,0.4267,0.4319,0.4338,0.4371,0.4419,0.4456,0.4499,0.4516,0.4549,0.4567,0.4611,0.4603,0.4663,0.4643,0.4666,0.4684,0.4686,0.4693,0.4683,0.4702,0.4738,0.4743,0.4696,0.4695,0.4695,0,0.4165,0.4241,0.4292,0.4315,0.4377,0.4399,0.4426,0.4468,0.4496,0.4537,0.4555,0.46,0.4625,0.4658,0.4688,0.4679,0.4744,0.4739,0.4758,0.4757,0.4772,0.4771,0.4812,0.4786,0.4786,0.4785,0.4785,0,0.4208,0.4249,0.4297,0.4329,0.4375,0.4407,0.4451,0.4478,0.4515,0.4551,0.4571,0.4604,0.464,0.4676,0.4699,0.4744,0.4755,0.4769,0.4775,0.4768,0.4766,0.4784,0.4782,0.4787,0.4787,0.4786,0.4786,0,0.4229,0.4263,0.432,0.4373,0.4387,0.4418,0.4463,0.4493,0.4519,0.4563,0.4575,0.4616,0.4659,0.4691,0.4747,0.4762,0.481,0.4816,0.4796,0.4799,0.4817,0.4815,0.4872,0.488,0.4847,0.4847,0.4848,0,0.4254,0.4286,0.4342,0.4368,0.4394,0.4435,0.4464,0.4495,0.4523,0.4574,0.4597,0.4642,0.468,0.4747,0.4781,0.4823,0.483,0.4847,0.4837,0.4828,0.483,0.4828,0.483,0.4849,0.4849,0.4849,0.4849,0,0.4295,0.4309,0.435,0.4396,0.4429,0.4467,0.4504,0.4523,0.4561,0.4591,0.4636,0.4665,0.4722,0.4766,0.481,0.4836,0.4848,0.4852,0.4858,0.4852,0.4839,0.4846,0.48,0.4851,0.4851,0.4851,0.485,0.485,0.4319,0.4348,0.4391,0.4435,0.4466,0.45,0.4531,0.456,0.4598,0.4648,0.4663,0.4709,0.4748,0.481,0.4835,0.487,0.4869,0.4879,0.4882,0.4884,0.4883,0.4833,0.4878,0.4878,0.4878,0.4878,0.4878,0,0.4361,0.4389,0.4429,0.4481,0.4514,0.4523,0.4564,0.4591,0.4632,0.4668,0.4704,0.4754,0.4795,0.4831,0.4874,0.4894,0.4901,0.4904,0.4904,0.4909,0.4882,0.4872,0.4898,0.4898,0.4898,0.4898,0.4898,0.4898,0.4386,0.4435,0.4454,0.4518,0.4545,0.4591,0.4614,0.4644,0.4673,0.4728,0.4763,0.4786,0.4821,0.4865,0.4903,0.4912,0.4927,0.4929,0.4939,0.4913,0.4911,0.4909,0.4899,0.4932,0.4932,0.4963,0.4964,0.4964]}]]